Vilalleons





Hora UTC 07:30
Temperatura 2.3 ºC
Humedad 97.0 %
Presión 1017.8 hPa
Pluja 0.0 mm
Velocidad viento 0.0 km/h
Dirección viento E

Datos diarios 2022-12-01



Hora UTC (invierno +1h; verano +2h)
Temperatura (ºC) Humedad (%) Presión (hPa) Velocidad viento (km/h) Precipitación (mm)
Hora UTC Aire Humedad Presión Vel. Dir. Vel. Max Dir. Intent. máx 5 min.
00:05 3.7 95.0 1018.3 0.0 NNW 0.0 0.0
00:10 3.7 95.0 1018.2 0.0 NNW 0.0 0.0
00:15 3.8 95.0 1018.1 0.0 NNW 0.0 0.0
00:20 3.8 95.0 1018.2 0.0 NNW 0.0 0.0
00:25 3.8 95.0 1018.1 0.0 NNW 0.0 0.0
00:30 3.8 95.0 1018.0 0.0 NNW 0.0 0.0
00:35 3.9 95.0 1018.1 0.0 NNW 0.0 0.0
00:40 3.9 95.0 1018.1 0.0 NNW 0.0 0.0
00:45 4.0 95.0 1018.1 0.0 NNW 0.0 0.0
00:50 4.1 95.0 1018.0 0.0 NNW 0.0 0.0
00:55 4.1 95.0 1018.0 0.0 NNW 0.0 0.0
01:00 4.2 95.0 1018.1 0.0 NNW 0.0 0.0
01:05 4.2 96.0 1018.0 0.0 NNW 0.0 0.0
01:10 4.3 95.0 1018.0 0.0 NNW 0.0 0.0
01:15 4.3 95.0 1017.9 0.0 NNW 0.0 0.0
01:20 4.3 95.0 1017.8 0.0 NNW 0.0 0.0
01:25 4.3 95.0 1017.9 0.0 NNW 0.0 0.0
01:30 4.4 95.0 1017.8 0.0 NNW 0.0 0.0
01:35 4.3 95.0 1017.9 0.0 NNW 0.0 0.0
01:40 4.2 95.0 1018.0 0.0 NNW 0.0 0.0
01:45 4.1 94.0 1017.9 0.0 NNW 0.0 0.0
01:50 3.9 94.0 1018.0 0.0 NNW 0.0 0.0
01:55 3.7 93.0 1017.8 1.6 E 4.8 0.0
02:00 3.6 93.0 1017.7 0.0 E 4.8 0.0
02:05 3.3 94.0 1017.7 1.6 E 1.6 0.0
02:10 3.1 93.0 1017.7 1.6 E 1.6 0.0
02:15 2.8 93.0 1017.8 1.6 E 3.2 0.0
02:20 2.6 93.0 1017.7 0.0 E 3.2 0.0
02:25 2.4 93.0 1017.8 3.2 E 4.8 0.0
02:30 2.1 93.0 1017.6 1.6 E 4.8 0.0
02:35 2.0 93.0 1017.7 1.6 E 3.2 0.0
02:40 1.9 94.0 1017.6 0.0 E 3.2 0.0
02:40 1.8 94.0 1017.6 1.6 E 3.2 0.0
02:45 1.8 94.0 1017.5 0.0 E 3.2 0.0
02:50 1.8 94.0 1017.5 0.0 E 1.6 0.0
02:55 1.7 94.0 1017.5 0.0 E 0.0 0.0
03:00 1.6 94.0 1017.5 0.0 E 0.0 0.0
03:05 1.6 94.0 1017.7 0.0 E 0.0 0.0
03:10 1.7 95.0 1017.5 0.0 E 0.0 0.0
03:15 1.8 95.0 1017.5 0.0 E 0.0 0.0
03:20 1.9 96.0 1017.4 0.0 E 0.0 0.0
03:30 2.0 96.0 1017.4 0.0 E 0.0 0.0
03:35 2.2 96.0 1017.3 0.0 E 0.0 0.0
03:40 2.3 96.0 1017.2 0.0 E 0.0 0.0
03:45 2.4 96.0 1017.3 0.0 E 0.0 0.0
03:50 2.5 96.0 1017.2 0.0 E 0.0 0.0
03:55 2.6 96.0 1017.4 0.0 E 0.0 0.0
04:00 2.6 96.0 1017.2 0.0 E 0.0 0.0
04:05 2.7 97.0 1017.3 0.0 E 0.0 0.0
04:10 2.8 97.0 1017.4 0.0 E 0.0 0.0
04:15 2.8 96.0 1017.3 0.0 E 0.0 0.0
04:20 2.8 96.0 1017.3 0.0 E 0.0 0.0
04:25 2.8 96.0 1017.3 0.0 E 0.0 0.0
04:30 2.6 95.0 1017.3 0.0 E 0.0 0.0
04:35 2.6 96.0 1017.3 0.0 E 0.0 0.0
04:40 2.5 96.0 1017.2 0.0 E 0.0 0.0
04:45 2.4 96.0 1017.2 0.0 E 0.0 0.0
04:50 2.3 95.0 1017.3 0.0 E 0.0 0.0
04:55 2.2 95.0 1017.2 0.0 E 0.0 0.0
05:00 2.0 95.0 1017.2 0.0 E 0.0 0.0
05:05 1.9 96.0 1017.2 0.0 E 0.0 0.0
05:10 1.9 96.0 1017.1 0.0 E 0.0 0.0
05:15 1.8 95.0 1017.2 0.0 E 0.0 0.0
05:20 1.8 95.0 1017.2 0.0 E 0.0 0.0
05:25 1.8 96.0 1017.2 0.0 E 0.0 0.0
05:30 1.8 96.0 1017.3 0.0 E 0.0 0.0
05:35 1.8 96.0 1017.3 0.0 E 0.0 0.0
05:40 1.8 96.0 1017.2 0.0 E 0.0 0.0
05:45 1.8 96.0 1017.3 0.0 E 0.0 0.0
05:50 1.8 96.0 1017.3 0.0 E 0.0 0.0
05:55 1.9 96.0 1017.3 0.0 E 0.0 0.0
06:00 1.9 96.0 1017.4 0.0 E 0.0 0.0
06:05 1.9 96.0 1017.5 0.0 E 0.0 0.0
06:10 1.9 96.0 1017.4 0.0 E 0.0 0.0
06:15 1.9 96.0 1017.5 0.0 E 0.0 0.0
06:20 1.8 96.0 1017.5 0.0 E 0.0 0.0
06:25 1.9 96.0 1017.4 0.0 E 0.0 0.0
06:30 1.9 96.0 1017.4 0.0 E 0.0 0.0
06:35 1.9 96.0 1017.4 0.0 E 0.0 0.0
06:35 1.8 96.0 1017.4 0.0 E 0.0 0.0
06:45 1.8 96.0 1017.5 0.0 E 0.0 0.0
06:50 1.9 96.0 1017.5 0.0 E 0.0 0.0
06:55 1.9 96.0 1017.6 0.0 E 0.0 0.0
07:00 1.9 96.0 1017.6 0.0 E 0.0 0.0
07:05 1.9 96.0 1017.7 0.0 E 0.0 0.0
07:10 2.0 96.0 1017.6 0.0 E 0.0 0.0
07:15 2.1 96.0 1017.7 0.0 E 0.0 0.0
07:20 2.1 97.0 1017.8 0.0 E 0.0 0.0
07:25 2.2 97.0 1017.6 0.0 E 0.0 0.0
07:30 2.3 97.0 1017.8 0.0 E 0.0 0.0
Máxima 4.4 97.0 1018.3 3.2 E 4.8 0.0
Mínima 1.6 93.0 1017.1
Total 0.0